Probability
0 0 0 0 0 0 0 0 0 0 0 0 0 0 0 0 0 0 0 0 0 1 2 2 3 3 3 3 3 4 5 4 3 3 3 3 3 3 3 2 1 0 0
0 0 0 0 0 0 0 0 0 0 0 0 0 0 0 0 0 0 0 0 0 0 1 1 2 3 3 3 3 4 4 4 3 3 3 3 3 3 3 2 1 0 0
0 0 0 0 0 0 0 0 0 0 0 0 0 0 0 0 0 0 0 0 0 0 0 0 1 1 2 3 3 3 4 3 3 3 4 3 3 3 2 2 1 0 0
0 0 0 0 0 0 0 0 0 0 0 0 0 0 0 0 0 0 0 0 0 0 0 0 0 0 1 1 2 2 2 3 3 4 4 3 2 1 1 1 0 0 0
0 0 0 0 0 0 0 0 0 0 0 0 0 0 0 0 0 0 0 0 0 0 0 0 0 0 0 0 1 2 2 3 3 3 3 2 1 1 1 1 0 0 0
0 0 0 0 0 0 0 0 0 0 0 0 0 0 0 0 0 0 0 0 0 0 0 0 0 0 0 0 1 2 4 4 3 2 3 2 1 1 2 1 0 0 0
0 0 0 0 0 0 0 0 0 0 0 0 0 0 0 0 0 0 0 0 0 0 0 0 0 0 0 0 1 3 4 4 3 2 3 2 1 1 2 1 0 0 0
0 0 0 0 0 0 0 0 0 0 0 0 0 0 0 0 0 0 0 0 0 0 0 0 0 0 0 0 0 1 2 3 2 2 3 3 2 1 2 1 0 0 0
0 0 0 0 0 0 0 0 0 0 0 0 0 0 0 0 0 0 0 0 0 0 0 0 0 0 0 0 0 0 1 1 1 2 2 3 2 1 1 1 0 0 0
0 0 0 0 0 0 0 0 0 0 0 0 0 0 0 0 0 0 0 0 0 0 0 0 0 0 0 0 0 0 0 0 0 1 1 2 1 0 0 0 0 1 1
0 0 0 0 0 0 0 0 0 0 0 0 0 0 0 0 0 0 0 0 0 0 0 0 0 0 0 0 0 0 0 0 0 0 0 0 0 0 0 0 0 1 2
0 0 0 0 0 0 0 0 0 0 0 0 0 0 0 0 0 0 0 0 0 0 0 0 0 0 0 0 0 0 0 0 0 0 0 0 0 0 0 0 0 1 1
0 0 0 0 0 0 0 0 0 0 0 0 0 0 0 0 0 0 0 0 0 0 0 0 0 0 0 0 0 0 0 0 0 0 0 0 0 0 0 0 0 0 0
0 0 0 0 0 0 0 0 0 0 0 0 0 0 0 0 0 0 0 0 0 0 0 0 0 0 0 0 0 0 0 0 0 0 0 0 0 0 0 0 0 0 0
1 1 0 0 0 0 0 0 0 0 0 0 0 0 0 0 0 0 0 0 0 0 0 0 0 0 0 0 0 0 0 0 0 0 0 0 0 0 0 0 0 0 0
2 1 0 0 0 0 0 0 0 0 0 0 0 0 0 0 0 0 0 0 0 0 0 0 0 0 0 0 0 0 0 0 0 0 0 0 0 0 0 0 0 0 0
2 1 0 0 0 0 0 0 0 0 0 0 0 0 0 0 0 0 0 0 0 0 0 0 0 0 0 0 0 0 0 0 0 0 0 0 0 0 0 0 0 0 0
1 0 0 0 0 0 0 0 0 0 0 0 0 0 0 0 0 0 0 0 0 0 0 0 0 0 0 0 0 0 0 0 0 0 0 0 0 0 0 0 0 0 0
2 2 1 1 0 0 0 0 0 0 0 0 0 0 0 0 0 0 0 0 0 0 0 0 0 0 0 0 0 0 0 0 0 0 0 0 0 0 0 0 0 0 0
5 4 4 2 0 0 0 0 0 0 0 0 0 0 0 0 0 0 0 1 0 0 0 0 0 0 0 0 0 0 0 0 0 0 0 0 0 0 0 0 0 0 0
6 6 5 2 0 0 0 0 0 0 0 0 0 0 0 0 0 0 0 0 0 0 0 0 0 0 0 0 0 0 0 0 0 0 0 0 0 0 0 0 0 0 0
5 5 5 3 1 0 0 0 0 0 0 0 0 0 0 0 0 0 0 0 0 0 0 0 0 0 0 0 0 0 0 0 0 0 0 0 1 1 0 0 0 0 0
4 5 5 4 2 1 0 0 0 0 0 0 0 0 0 0 0 0 0 0 0 0 0 0 0 0 0 0 0 0 0 0 0 0 0 0 1 1 0 0 0 0 0
4 5 5 4 3 2 1 0 0 0 0 0 0 0 0 0 0 0 0 0 0 0 0 0 0 0 0 0 0 0 0 0 0 0 0 0 1 1 0 0 0 0 0
4 4 4 3 3 2 1 0 0 0 0 0 0 0 0 0 0 0 0 0 0 0 0 0 0 0 0 0 0 0 1 1 1 0 0 0 0 0 0 0 0 0 0
3 3 3 3 3 2 1 0 0 0 0 0 0 0 0 0 0 0 0 0 0 0 0 0 0 0 0 0 0 0 1 2 2 1 0 0 0 0 0 0 0 0 0
Wind_Speed
2 2 2 2 2 2 2 2 3 4 5 4 5 6 5 5 6 5 5 12 13 13 12 11 11 11 10 10 10 10 10 10 10 10 10 10 10 10 10 10 10 10 10
3 3 2 3 2 2 2 3 3 4 3 3 5 5 5 5 5 5 5 7 12 12 12 11 11 11 10 10 10 10 10 9 9 10 10 10 11 11 10 10 10 10 10
3 3 3 2 2 2 3 3 4 3 3 3 4 5 4 4 5 5 5 4 5 9 11 11 10 10 10 10 10 10 9 9 9 10 10 10 10 10 10 10 10 10 11
4 4 3 2 3 3 3 3 3 3 3 3 3 3 4 3 4 4 4 4 3 4 7 10 10 10 10 10 9 9 9 9 9 9 10 10 10 10 10 10 10 10 10
5 4 2 2 3 3 2 3 3 3 3 3 3 3 3 3 3 4 4 4 4 4 4 7 9 9 10 9 9 9 9 9 9 9 10 9 9 9 9 9 9 9 9
4 3 3 3 3 3 3 3 3 3 2 2 3 4 3 3 3 3 3 3 3 4 4 5 4 6 9 9 9 9 9 9 9 10 9 8 8 8 8 8 8 8 8
3 3 3 3 3 3 2 3 3 3 2 2 3 2 2 3 3 2 2 3 3 3 3 4 3 3 3 8 8 8 8 9 9 9 9 8 8 7 7 7 7 7 7
2 3 3 3 3 3 3 3 3 2 1 0 1 1 1 2 2 2 2 2 3 2 3 4 4 4 3 2 5 7 7 7 7 8 8 7 7 7 7 7 7 6 6
2 2 2 2 3 3 2 2 2 2 1 1 1 2 1 1 1 1 1 2 2 2 2 2 3 4 4 3 3 5 6 6 6 6 7 6 6 6 6 6 6 6 6
2 1 1 2 3 2 2 2 2 1 1 1 1 1 1 2 2 0 1 1 1 2 2 2 3 4 4 3 4 6 6 6 5 5 5 5 5 5 5 5 6 5 5
2 2 2 2 2 2 2 2 2 2 1 1 0 0 1 0 1 2 1 0 1 1 1 2 2 2 3 3 3 5 6 6 6 5 4 4 4 4 5 4 5 5 5
1 1 2 2 2 2 2 2 2 2 1 0 0 0 1 0 1 1 2 1 1 0 1 1 2 2 2 3 4 7 7 6 6 6 6 5 4 4 4 4 4 5 5
1 1 1 1 2 1 2 1 1 1 1 1 1 1 1 0 1 2 2 1 1 0 1 0 1 2 3 3 4 7 6 6 6 6 6 5 5 5 5 5 4 4 5
1 2 2 2 2 2 1 1 1 0 0 1 1 1 0 1 1 2 2 2 1 0 1 0 1 2 3 3 4 5 4 6 6 6 6 5 5 5 5 5 5 4 5
2 2 2 2 2 2 1 1 1 1 1 1 1 1 1 1 1 1 1 2 2 1 0 0 1 1 2 3 4 3 3 5 6 6 6 6 5 6 6 6 6 5 5
1 2 2 2 2 2 2 2 1 1 1 1 1 1 1 1 1 1 1 1 2 3 1 0 1 1 2 3 5 3 4 7 6 6 6 6 6 5 5 6 5 5 5
1 2 2 2 2 2 2 2 1 1 1 0 0 1 1 2 2 1 1 1 1 2 2 0 1 1 3 3 3 2 3 3 3 5 5 5 5 5 5 4 4 5 5
1 1 2 2 2 2 1 2 1 1 1 1 1 1 2 2 2 1 1 1 1 2 3 1 0 1 2 2 3 2 2 3 3 6 6 5 5 4 4 4 4 4 5
1 0 1 2 2 2 1 1 1 1 1 0 0 1 1 2 2 1 1 1 1 2 2 2 1 1 1 1 2 1 1 1 2 4 6 5 5 5 4 3 3 3 3
1 1 1 2 2 2 1 1 1 1 0 0 1 1 1 2 1 1 1 1 1 2 2 2 1 1 1 0 1 1 0 0 0 2 3 4 4 5 4 4 3 3 3
0 1 1 2 2 2 2 2 1 0 0 0 1 1 2 3 3 2 1 2 2 2 2 2 2 1 1 1 1 1 1 1 0 1 1 2 2 2 2 3 3 3 3
1 1 1 2 2 1 3 3 1 1 0 0 0 1 1 2 3 3 3 3 3 3 2 2 2 2 2 2 2 2 2 1 1 1 1 1 2 2 2 2 4 5 4
1 1 1 1 1 2 2 2 1 1 1 1 1 1 1 2 2 1 1 2 1 1 3 3 3 3 2 2 2 2 2 2 2 2 2 1 1 2 2 3 7 7 6
1 2 2 2 2 1 1 1 1 1 1 1 1 1 1 2 2 2 1 1 1 1 2 3 3 2 2 2 3 3 3 2 0 0 2 1 1 1 2 2 6 7 7
1 2 2 2 2 1 1 1 0 1 1 1 1 1 2 2 2 3 2 1 1 1 2 2 3 3 2 1 2 2 1 1 1 1 1 1 1 1 1 1 3 7 7
2 2 2 2 3 2 2 2 1 1 1 1 0 0 2 2 2 3 2 2 2 2 1 1 1 1 2 2 2 3 3 3 2 1 1 1 1 1 1 1 1 2 2
Wind_Direction
90 87 83 73 81 81 67 56 59 63 59 52 61 67 70 78 87 79 66 74 82 83 82 79 76 76 74 73 72 70 71 74 74 73 72 71 71 72 75 75 75 75 75
88 79 77 72 63 61 65 72 71 71 68 58 60 63 62 71 87 95 87 75 78 81 78 76 77 77 75 73 72 71 72 75 77 79 78 74 70 69 70 73 75 73 73
93 86 69 74 73 64 61 61 63 68 79 76 71 66 63 64 79 87 92 90 80 76 78 77 76 74 73 72 72 71 71 73 76 80 80 77 73 70 69 71 73 73 75
81 78 69 60 70 69 67 66 60 62 60 60 65 65 65 59 72 81 86 90 91 88 78 80 77 73 72 72 73 74 74 78 80 84 84 81 78 74 75 75 76 77 76
82 85 72 60 65 64 61 69 64 64 66 64 73 71 66 60 57 79 78 80 86 98 95 86 80 72 69 70 71 73 73 80 81 85 86 84 82 80 79 80 82 81 79
82 88 87 71 66 66 58 66 76 68 72 70 76 74 68 73 56 64 75 78 80 91 101 105 91 72 66 65 67 68 71 80 81 83 83 84 85 86 85 83 84 84 83
82 87 89 91 83 86 88 82 80 75 63 69 78 63 45 59 67 68 64 66 69 79 95 105 109 100 77 65 61 68 72 78 81 81 80 84 87 86 85 86 87 88 87
73 96 107 106 95 90 87 87 84 69 49 87 107 103 72 31 17 55 66 68 64 65 79 95 105 108 100 88 62 65 67 78 80 80 83 85 89 88 83 83 89 91 93
79 86 107 122 130 124 120 123 120 108 69 350 51 97 120 137 27 12 61 77 63 60 58 70 89 98 103 98 87 63 65 67 78 83 86 87 91 92 87 84 89 92 95
103 92 94 110 109 114 129 148 128 119 108 24 352 22 94 134 138 104 352 55 80 71 63 56 80 89 94 95 90 81 74 64 68 81 86 89 90 92 90 87 90 92 98
104 107 83 78 91 107 119 110 105 99 97 116 124 354 36 40 134 139 156 225 40 46 68 72 89 95 99 103 97 88 84 71 62 64 69 80 87 93 93 95 95 93 95
84 89 90 88 86 83 91 108 124 133 146 130 29 68 130 126 134 120 138 155 132 24 50 71 95 113 109 100 100 98 92 80 70 63 58 63 72 82 90 95 97 98 96
147 140 113 101 87 79 85 95 108 138 167 157 140 61 39 16 101 120 128 145 130 167 78 59 120 125 116 106 104 104 100 95 84 74 66 62 64 69 74 79 89 103 104
164 149 142 117 109 96 82 81 73 100 118 142 135 128 94 23 60 113 131 130 111 63 76 120 65 99 106 115 126 122 110 106 99 88 78 73 69 67 72 74 77 91 101
154 145 134 124 122 119 102 76 62 46 56 64 84 91 93 95 75 71 103 136 140 130 31 150 90 111 118 114 138 133 125 120 113 103 92 85 79 74 77 75 76 84 94
114 122 131 136 141 133 127 108 79 38 53 38 92 96 85 78 82 78 91 81 103 132 139 151 129 123 126 134 140 138 126 129 128 118 108 98 92 87 83 77 73 78 88
114 129 152 156 154 141 137 132 146 151 129 79 264 146 126 105 91 81 93 76 79 106 121 29 81 89 102 107 111 131 138 138 134 138 131 122 113 102 94 87 80 81 86
135 154 144 137 133 122 119 130 158 149 138 151 232 131 126 115 104 81 90 111 115 121 128 131 58 85 101 127 131 137 141 143 140 150 153 147 136 120 107 98 90 89 88
124 103 115 129 129 122 115 115 115 90 67 102 91 98 118 120 133 135 132 120 127 125 124 134 147 121 107 124 109 106 107 118 155 150 162 161 156 145 132 122 110 101 95
136 129 114 118 120 122 106 94 65 87 101 33 57 81 91 106 137 158 151 145 127 124 128 132 149 155 154 178 121 129 60 10 180 151 150 159 169 167 158 150 141 131 120
107 92 93 96 99 103 91 97 101 225 133 48 54 77 97 105 113 120 130 139 131 136 138 143 164 156 169 144 178 187 177 184 310 150 135 165 162 164 168 172 172 158 143
109 82 90 94 104 98 83 83 105 265 234 198 228 212 164 122 104 103 110 115 134 159 171 164 177 182 202 193 189 186 173 152 265 269 139 201 158 164 171 159 164 164 166
142 141 133 129 123 110 106 92 56 272 215 210 231 204 186 131 127 130 133 138 131 158 174 171 182 205 203 198 174 177 180 178 209 213 140 230 186 178 183 164 166 172 175
167 166 160 159 139 134 121 138 288 249 224 197 190 197 180 185 171 153 169 155 175 209 206 190 188 205 203 196 179 186 189 188 244 87 125 189 234 210 189 179 178 179 182
192 183 169 168 159 177 181 175 142 239 227 215 194 180 162 171 161 149 164 183 198 243 213 172 178 193 185 179 166 136 151 147 218 255 183 164 232 233 225 205 193 182 181
193 198 185 180 171 178 193 187 189 205 230 241 186 141 148 153 156 153 172 178 191 223 196 175 214 228 205 191 180 166 168 171 184 230 227 159 210 128 296 255 170 169 181